Nome, AK

9:57 PM AKST on December 13, 2017 (GMT -0900)
Nome

Weather History for PAOM - May, 2014

Change the Weather History Date:

Wednesday, May 21, 2014

  Actual Average Record
Temperature  
Mean Temperature 39 °F 39 °F  
Max Temperature 48 °F 46 °F 69 °F (2002)
Min Temperature 29 °F 33 °F 15 °F (1926)
Degree Days  
Heating Degree Days 26 26  
Month to date heating degree days 664 637  
Since 1 July heating degree days 11530 12947  
Cooling Degree Days 0 0  
Month to date cooling degree days 0 0  
Year to date cooling degree days 0 0  
Moisture  
Dew Point 22 °F    
Average Humidity 0    
Maximum Humidity 0    
Minimum Humidity 0    
Precipitation  
Precipitation 0.00 in 0.02 in 0.81 in (2013)
Month to date precipitation 0.54 0.58  
Year to date precipitation 3.69 3.86  
Snow  
Snow 0.00 in 0.10 in 4.20 in (2013)
Month to date snowfall 2.3 2.0  
Since 1 July snowfall 72.0 75.1  
Snow Depth 0.00 in    
Sea Level Pressure  
Sea Level Pressure 30.25 in    
Wind  
Wind Speed 9 mph (North)    
Max Wind Speed 18 mph    
Max Gust Speed 21 mph    
Visibility 10 miles    
Events      
T = Trace of Precipitation, MM = Missing Value Source: NWS Daily Summary

Daily Weather History Graph

Daily Weather History Graph

Search for Another Location

Airport or City:

Trip Planner

Search our weather history database for the weather conditions in past years. The results will help you decide how hot, cold, wet, or windy it might be!

Date:

Astronomy

May. 21, 2014 Rise Set
Actual Time 5:22 AM AKDT 12:37 AM AKDT
Civil Twilight 3:30 AM AKDT 2:26 AM AKDT
Nautical Twilight Sun does not rise Sun does not rise
Astronomical Twilight Sun does not rise Sun does not rise
Moon 4:11 AM AKDT (5/21) 2:41 PM AKDT (5/21)
Length of Visible Light 22h 55m
Length of Day
19h 14m
Waning Gibbous, 47% of the Moon is Illuminated
May 21
Waning Gibbous
May 28
New
Jun 5
First Quarter
Jun 12
Full
Jun 19
Last Quarter

Hourly Weather History & Observations

Time (AKDT) Temp. Windchill Dew Point Humidity Pressure Visibility Wind Dir Wind Speed Gust Speed Precip Events Conditions
12:53 AM 33.1 °F 23.9 °F 27.0 °F 78% 30.22 in 10.0 mi NNE 12.7 mph 19.6 mph N/A   Scattered Clouds
1:53 AM 32.0 °F 25.6 °F 25.0 °F 75% 30.24 in 10.0 mi North 6.9 mph - N/A   Scattered Clouds
2:53 AM 30.9 °F 25.2 °F 24.1 °F 76% 30.25 in 10.0 mi NNW 5.8 mph - N/A   Scattered Clouds
3:53 AM 30.9 °F 22.8 °F 23.0 °F 72% 30.26 in 10.0 mi North 9.2 mph - N/A   Scattered Clouds
4:53 AM 30.0 °F 20.5 °F 21.9 °F 72% 30.26 in 10.0 mi NNE 11.5 mph - N/A   Scattered Clouds
5:53 AM 30.0 °F 21.7 °F 21.0 °F 69% 30.27 in 10.0 mi NNW 9.2 mph - N/A   Scattered Clouds
6:53 AM 30.0 °F 21.7 °F 21.0 °F 69% 30.27 in 10.0 mi North 9.2 mph - N/A   Scattered Clouds
7:53 AM 32.0 °F 26.4 °F 21.0 °F 64% 30.27 in 10.0 mi NE 5.8 mph - N/A   Scattered Clouds
8:53 AM 33.1 °F 24.9 °F 19.0 °F 56% 30.28 in 10.0 mi NNW 10.4 mph - N/A   Scattered Clouds
9:53 AM 37.4 °F 30.3 °F 17.6 °F 45% 30.28 in 10.0 mi North 10.4 mph - N/A   Clear
10:53 AM 39.0 °F 34.8 °F 17.1 °F 41% 30.27 in 10.0 mi NNW 5.8 mph - N/A   Clear
11:53 AM 39.9 °F 32.9 °F 19.0 °F 43% 30.27 in 10.0 mi North 11.5 mph - N/A   Partly Cloudy
12:53 PM 42.1 °F 34.9 °F 19.9 °F 41% 30.26 in 10.0 mi North 13.8 mph - N/A   Partly Cloudy
1:53 PM 45.0 °F 39.3 °F 21.0 °F 39% 30.27 in 10.0 mi NNE 11.5 mph - N/A   Partly Cloudy
2:53 PM 45.0 °F 40.6 °F 21.0 °F 39% 30.26 in 10.0 mi North 8.1 mph - N/A   Partly Cloudy
3:53 PM 45.0 °F 41.2 °F 23.0 °F 42% 30.25 in 10.0 mi Variable 6.9 mph - N/A   Partly Cloudy
4:53 PM 46.9 °F - 23.0 °F 39% 30.24 in 10.0 mi NNE 11.5 mph - N/A   Scattered Clouds
5:53 PM 48.0 °F - 25.0 °F 41% 30.23 in 10.0 mi North 12.7 mph - N/A   Scattered Clouds
6:53 PM 48.0 °F - 24.1 °F 39% 30.23 in 10.0 mi North 10.4 mph 18.4 mph N/A   Scattered Clouds
7:53 PM 46.0 °F 40.6 °F 23.0 °F 40% 30.23 in 10.0 mi North 11.5 mph - N/A   Scattered Clouds
8:53 PM 46.0 °F 40.6 °F 24.1 °F 42% 30.22 in 10.0 mi North 11.5 mph - N/A   Scattered Clouds
9:53 PM 45.0 °F 41.2 °F 23.0 °F 42% 30.22 in 10.0 mi North 6.9 mph - N/A   Scattered Clouds
10:53 PM 43.0 °F 37.2 °F 21.9 °F 43% 30.22 in 10.0 mi NNW 10.4 mph - N/A   Scattered Clouds
11:53 PM 42.1 °F 36.6 °F 19.0 °F 40% 30.22 in 10.0 mi NW 9.2 mph - N/A   Scattered Clouds